カタログに戻る

STARLINK-31168

運用中通信VLEO
NORAD 58798·PAYLOAD·🇺🇸 United States

打ち上げ Jan 15, 2024 から Cape Canaveral Space Force Station

Loading…

次のパス (今後24時間)

TLE

最新Source: CelesTrak SupGP

元期: Sep 15, 2026, 02:12 UTC

1 58798C 24012M   26258.09215278 -.00034011  00000+0 -12321-2 0  2582
2 58798  43.0027 175.5754 0001315 272.5947  61.6543 15.27590298    19

AllMySatでSTARLINK-31168をリアルタイム追跡

Download on the App Store